Total_Precipitation_Accumulation
0.03 0.03 0.03 0.02 0.01 0.01 0.00 0.00 0.00 0.00 0.00 0.01 0.01 0.01 0.01 0.02 0.02 0.03 0.05 0.07 0.08 0.06
0.02 0.03 0.03 0.02 0.02 0.02 0.01 0.01 0.01 0.00 0.00 0.01 0.01 0.02 0.03 0.03 0.01 0.03 0.05 0.06 0.09 0.11
0.04 0.03 0.03 0.03 0.02 0.02 0.02 0.01 0.01 0.01 0.01 0.02 0.02 0.02 0.03 0.05 0.04 0.05 0.05 0.07 0.09 0.09
0.05 0.04 0.03 0.03 0.02 0.02 0.02 0.01 0.01 0.01 0.01 0.01 0.02 0.02 0.03 0.03 0.04 0.05 0.06 0.07 0.08 0.08
0.14 0.11 0.04 0.02 0.01 0.02 0.02 0.01 0.01 0.01 0.01 0.01 0.00 0.01 0.01 0.03 0.03 0.03 0.03 0.05 0.07 0.06
0.10 0.14 0.07 0.02 0.02 0.02 0.02 0.02 0.02 0.02 0.02 0.02 0.02 0.01 0.01 0.01 0.02 0.03 0.02 0.02 0.04 0.07
0.05 0.05 0.04 0.02 0.01 0.01 0.03 0.05 0.07 0.06 0.07 0.06 0.04 0.05 0.04 0.03 0.02 0.03 0.05 0.05 0.05 0.04
0.11 0.06 0.03 0.01 0.00 0.01 0.01 0.01 0.02 0.03 0.06 0.08 0.07 0.07 0.07 0.06 0.04 0.04 0.05 0.07 0.10 0.11
0.07 0.09 0.07 0.03 0.01 0.02 0.03 0.03 0.04 0.05 0.05 0.06 0.03 0.06 0.04 0.02 0.02 0.03 0.04 0.05 0.10 0.09
0.09 0.08 0.09 0.06 0.03 0.03 0.04 0.04 0.04 0.04 0.04 0.04 0.04 0.08 0.02 0.03 0.01 0.04 0.05 0.06 0.15 0.19
0.20 0.20 0.16 0.12 0.10 0.10 0.10 0.10 0.09 0.07 0.08 0.08 0.09 0.16 0.09 0.08 0.03 0.06 0.09 0.12 0.18 0.28
0.16 0.30 0.32 0.28 0.24 0.21 0.19 0.19 0.18 0.18 0.16 0.14 0.16 0.25 0.21 0.13 0.09 0.12 0.14 0.21 0.30 0.33
0.09 0.15 0.34 0.32 0.37 0.34 0.28 0.26 0.24 0.22 0.19 0.22 0.24 0.26 0.24 0.24 0.21 0.23 0.22 0.31 0.44 0.48
0.17 0.13 0.17 0.34 0.38 0.43 0.40 0.35 0.33 0.28 0.22 0.22 0.25 0.23 0.28 0.27 0.19 0.18 0.24 0.31 0.34 0.35